Showing default

CARTOSAT 2C, 41599

Orbit data source: Space-Track

CARTOSAT 2C, 41599 is a payload satellite owned by ISRO (IN) in SSO that was launched on Wed, 22 Jun 2016 UTC via a PSLV-XL launch vehicle from the Sirharikota (SRI). Payload-class satellites include a variety of spacecraft equipped with specific instruments for various scientific and technological missions. These include communications satellites like Starlink; space stations such as the ISS; scientific satellites like the Hubble; Earth observation satellites from companies like Planet Labs, Umbra, and HawkEye 360; GPS; miniature CubeSats for education and research; and military/defense satellites.

Loading next visibility...
Identifier
41599, 2016-040A
Orbit
SSO
Country
Flag of ININ / IND
Related business
Manufacturer
ISRO
Mission
Operational Defense Imaging
Bus & Motor
IRS-2, AOCS
Mass
727 kg wet, ~600 kg dry
Launch date (UTC)
2016-06-22 (10 years ago)
Launch vehicle
PSLV-XL
Launch site
Sirharikota (SRI)
Object type
Payload
Rocket body
Debris
Shape & HBR
Hex Cyl + 2 Pan, 3.0 m
Radar Cross Section
8.699 m², Large (>1 m²)

Expand to show TLE details & history
Last TLE update: 6 hours ago

TLE from 6 hours ago
0 CARTOSAT 2C
1 41599U 16040A   26037.84679115  .00007191  00000-0  34484-3 0  9992
2 41599  97.4663  99.4945 0008906 229.6786 130.3671 15.19169777533924
Epoch: 2026-02-06T20:19Z
TLE epoch observation values (Epoch: 2026-02-06T20:19:22.755Z)
Latitude
-0.00002°
Longitude
17.67089°
Altitude
515.412 km
Speed
7.604 km/s
True Right ascension
06h 37m 58s
True Declination
0° 00' 00"
Sunlit
Object was in full shadow at epoch
Visualization orbit readout
Latitude
Unknown
Longitude
Unknown
Altitude
Unknown
Speed
Unknown
Apparent Right ascension
Unknown
Apparent Declination
Unknown
Sunlit
N/A
Visualization observer readout
Local Sidereal Time
04:39:01
Azimuth
Unknown
Elevation
Unknown
Doppler factor
Unknown
Orbital elements
Apogee altitude
511.448 km
Perigee altitude
499.188 km
Semi-major axis
6,883.455 km
Eccentricity
0.00089
Inclination
97.4663°
RAAN
99.4945°
Arg. of periapsis
229.6786°
True anomaly
130.4448°
Mean anomaly
130.3671°
Eccentric anomaly
130.40596°
Mean motion
3.80044 °/min
Orbital period
94.73 mins
BSTAR
0.00034484
Loading maneuver chart data...
Computing Atmospheric mass density...
Loading historical data...
Loading historical data...
Loading historical data...
Loading historical data...
Loading historical data...
Loading historical data...
Loading historical data...

Documentation

Showing up to 5 results
|